TimeMST,TemperatureF,Dew PointF,Humidity,Sea Level PressureIn,VisibilityMPH,Wind Direction,Wind SpeedMPH,Gust SpeedMPH,PrecipitationIn,Events,Conditions,WindDirDegrees,DateUTC
12:15 AM,21.2,19.4,93,29.81,0.2,NNW,18.4,27.6,N/A,Fog,Light Freezing Fog,340,2013-02-25 07:15:00
12:35 AM,19.4,17.6,93,29.82,0.2,NNW,23.0,29.9,N/A,Fog,Light Freezing Fog,340,2013-02-25 07:35:00
12:55 AM,19.4,17.6,93,29.83,0.5,North,18.4,31.1,N/A,Fog,Light Freezing Fog,350,2013-02-25 07:55:00
1:15 AM,19.4,17.6,93,29.84,0.5,North,16.1,21.9,N/A,Fog,Light Freezing Fog,350,2013-02-25 08:15:00
1:35 AM,21.2,17.6,86,29.84,0.5,NNW,24.2,29.9,N/A,Fog,Light Freezing Fog,340,2013-02-25 08:35:00
1:55 AM,19.4,17.6,93,29.84,0.5,North,19.6,29.9,N/A,Fog,Light Freezing Fog,350,2013-02-25 08:55:00
2:15 AM,19.4,17.6,93,29.85,0.2,NNW,20.7,33.4,N/A,Fog,Light Freezing Fog,340,2013-02-25 09:15:00
2:35 AM,19.4,17.6,93,29.86,0.8,North,18.4,28.8,N/A,,Overcast,350,2013-02-25 09:35:00
2:55 AM,19.4,17.6,93,29.86,1.0,North,16.1,26.5,0.01,,Overcast,350,2013-02-25 09:55:00
3:15 AM,19.4,17.6,93,29.87,0.8,North,16.1,25.3,N/A,,Overcast,350,2013-02-25 10:15:00
3:35 AM,19.4,17.6,93,29.86,0.8,North,11.5,25.3,N/A,,Overcast,350,2013-02-25 10:35:00
3:55 AM,19.4,17.6,93,29.87,1.0,North,13.8,20.7,N/A,,Overcast,350,2013-02-25 10:55:00
4:15 AM,19.4,17.6,93,29.87,1.0,NNW,9.2,-,N/A,,Overcast,340,2013-02-25 11:15:00
4:35 AM,19.4,17.6,93,29.88,1.2,NW,8.1,-,N/A,,Overcast,320,2013-02-25 11:35:00
4:55 AM,19.4,17.6,93,29.89,1.5,NW,11.5,17.3,N/A,,Mist,310,2013-02-25 11:55:00
5:15 AM,21.2,17.6,86,29.90,1.8,NW,12.7,19.6,N/A,,Overcast,310,2013-02-25 12:15:00
5:35 AM,21.2,17.6,86,29.90,7.0,NW,11.5,-,N/A,,Overcast,310,2013-02-25 12:35:00
5:55 AM,21.2,17.6,86,29.91,10.0,NW,16.1,21.9,N/A,,Overcast,310,2013-02-25 12:55:00
6:15 AM,21.2,17.6,86,29.92,10.0,WNW,16.1,24.2,N/A,,Mostly Cloudy,300,2013-02-25 13:15:00
6:35 AM,21.2,15.8,80,29.92,10.0,NW,16.1,20.7,N/A,,Mostly Cloudy,310,2013-02-25 13:35:00
6:55 AM,21.2,15.8,80,29.93,10.0,NW,16.1,21.9,N/A,,Partly Cloudy,310,2013-02-25 13:55:00
7:15 AM,21.2,15.8,80,29.94,10.0,NW,17.3,25.3,N/A,,Partly Cloudy,320,2013-02-25 14:15:00
7:35 AM,21.2,15.8,80,29.95,10.0,NW,12.7,20.7,N/A,,Clear,320,2013-02-25 14:35:00
7:55 AM,23.0,15.8,74,29.97,10.0,NW,18.4,27.6,N/A,,Clear,320,2013-02-25 14:55:00
8:15 AM,23.0,15.8,74,29.97,10.0,NW,10.4,21.9,N/A,,Partly Cloudy,310,2013-02-25 15:15:00
8:35 AM,23.0,15.8,74,29.98,10.0,WNW,11.5,19.6,N/A,,Scattered Clouds,300,2013-02-25 15:35:00
8:55 AM,23.0,15.8,74,29.98,10.0,WNW,16.1,20.7,N/A,,Partly Cloudy,300,2013-02-25 15:55:00
9:15 AM,24.8,15.8,69,29.97,10.0,NW,18.4,27.6,N/A,,Clear,310,2013-02-25 16:15:00
9:35 AM,24.8,15.8,69,29.98,10.0,NW,18.4,25.3,N/A,,Clear,310,2013-02-25 16:35:00
9:55 AM,24.8,14.0,64,29.99,10.0,NW,13.8,26.5,N/A,,Clear,310,2013-02-25 16:55:00
10:15 AM,26.6,14.0,59,30.00,10.0,NW,15.0,27.6,N/A,,Clear,310,2013-02-25 17:15:00
10:35 AM,26.6,14.0,59,30.00,10.0,NW,18.4,25.3,N/A,,Clear,310,2013-02-25 17:35:00
10:55 AM,26.6,12.2,55,30.01,10.0,NNW,16.1,25.3,N/A,,Clear,330,2013-02-25 17:55:00
11:15 AM,28.4,12.2,51,30.00,10.0,NW,13.8,27.6,N/A,,Clear,310,2013-02-25 18:15:00
11:35 AM,28.4,14.0,55,30.00,10.0,NW,15.0,24.2,N/A,,Clear,310,2013-02-25 18:35:00
11:55 AM,28.4,12.2,51,29.99,10.0,WNW,13.8,24.2,N/A,,Clear,300,2013-02-25 18:55:00
12:15 PM,28.4,12.2,51,29.99,10.0,NW,20.7,31.1,N/A,,Clear,310,2013-02-25 19:15:00
12:35 PM,30.2,12.2,47,29.98,10.0,NW,17.3,26.5,N/A,,Clear,310,2013-02-25 19:35:00
12:55 PM,30.2,14.0,51,29.98,10.0,NW,13.8,25.3,N/A,,Clear,310,2013-02-25 19:55:00
1:15 PM,30.2,14.0,51,29.98,10.0,NW,15.0,23.0,N/A,,Clear,320,2013-02-25 20:15:00
1:35 PM,32.0,14.0,48,29.97,10.0,NW,10.4,18.4,N/A,,Clear,320,2013-02-25 20:35:00
1:55 PM,32.0,14.0,48,29.97,10.0,NW,15.0,19.6,N/A,,Clear,320,2013-02-25 20:55:00
2:15 PM,32.0,14.0,48,29.97,10.0,WNW,10.4,21.9,N/A,,Clear,300,2013-02-25 21:15:00
2:35 PM,32.0,10.4,41,29.97,10.0,WNW,12.7,25.3,N/A,,Clear,300,2013-02-25 21:35:00
2:55 PM,32.0,12.2,44,29.97,10.0,NNW,15.0,25.3,N/A,,Clear,330,2013-02-25 21:55:00
3:15 PM,33.8,12.2,41,29.97,10.0,NW,16.1,25.3,N/A,,Clear,310,2013-02-25 22:15:00
3:35 PM,33.8,10.4,38,29.96,10.0,NW,10.4,23.0,N/A,,Clear,320,2013-02-25 22:35:00
3:55 PM,35.6,10.4,35,29.96,10.0,NW,16.1,21.9,N/A,,Clear,320,2013-02-25 22:55:00
4:15 PM,35.6,8.6,33,29.95,10.0,NW,15.0,24.2,N/A,,Clear,320,2013-02-25 23:15:00
4:35 PM,35.6,8.6,33,29.95,10.0,NW,16.1,24.2,N/A,,Clear,310,2013-02-25 23:35:00
4:55 PM,35.6,5.0,28,29.94,10.0,NW,17.3,29.9,N/A,,Clear,310,2013-02-25 23:55:00
5:15 PM,33.8,5.0,30,29.95,10.0,NW,19.6,24.2,N/A,,Clear,310,2013-02-26 00:15:00
5:35 PM,32.0,5.0,32,29.96,10.0,NW,12.7,19.6,N/A,,Clear,310,2013-02-26 00:35:00
5:55 PM,32.0,5.0,32,29.96,10.0,WNW,5.8,-,N/A,,Clear,300,2013-02-26 00:55:00
6:15 PM,32.0,5.0,32,29.95,10.0,WNW,11.5,-,N/A,,Clear,290,2013-02-26 01:15:00
6:35 PM,32.0,5.0,32,29.95,10.0,WNW,9.2,-,N/A,,Clear,300,2013-02-26 01:35:00
6:55 PM,32.0,5.0,32,29.95,10.0,WNW,10.4,-,N/A,,Clear,290,2013-02-26 01:55:00
7:15 PM,32.0,6.8,35,29.95,10.0,WNW,5.8,-,N/A,,Clear,300,2013-02-26 02:15:00
7:35 PM,28.4,6.8,40,29.95,10.0,SSE,4.6,-,N/A,,Clear,150,2013-02-26 02:35:00
7:55 PM,30.2,5.0,34,29.95,10.0,WNW,4.6,-,N/A,,Clear,290,2013-02-26 02:55:00
8:15 PM,28.4,5.0,37,29.96,10.0,SW,5.8,-,N/A,,Clear,220,2013-02-26 03:15:00
8:35 PM,32.0,6.8,35,29.95,10.0,WNW,4.6,-,N/A,,Clear,290,2013-02-26 03:35:00
8:55 PM,32.0,6.8,35,29.95,10.0,West,12.7,23.0,N/A,,Clear,270,2013-02-26 03:55:00
9:15 PM,32.0,6.8,35,29.97,10.0,SSW,6.9,17.3,N/A,,Clear,210,2013-02-26 04:15:00
9:35 PM,28.4,8.6,43,29.97,10.0,WSW,6.9,-,N/A,,Clear,240,2013-02-26 04:35:00
9:55 PM,26.6,8.6,47,29.97,10.0,SSE,5.8,-,N/A,,Clear,150,2013-02-26 04:55:00
10:15 PM,28.4,6.8,40,29.96,10.0,SSE,6.9,-,N/A,,Clear,160,2013-02-26 05:15:00
10:35 PM,30.2,6.8,37,29.96,10.0,SSE,6.9,-,N/A,,Clear,150,2013-02-26 05:35:00
10:55 PM,28.4,6.8,40,29.95,10.0,South,4.6,-,N/A,,Clear,190,2013-02-26 05:55:00
11:15 PM,30.2,6.8,37,29.95,10.0,West,6.9,-,N/A,,Clear,270,2013-02-26 06:15:00
11:35 PM,28.4,6.8,40,29.94,10.0,West,4.6,-,N/A,,Clear,260,2013-02-26 06:35:00
11:55 PM,30.2,8.6,40,29.93,10.0,West,8.1,16.1,N/A,,Clear,260,2013-02-26 06:55:00